Weather History for Mayport NS, FL

Change the Weather History Date:

Thursday, December 13, 2012

  Actual Average Record
Temperature  
Mean Temperature 56 °F -  
Max Temperature 62 °F 63 °F 77 °F (1998)
Min Temperature 50 °F 50 °F 32 °F (2010)
Degree Days  
Heating Degree Days 9    
Growing Degree Days 6 (Base 50)    
Moisture  
Dew Point 52 °F    
Average Humidity 96    
Maximum Humidity 100    
Minimum Humidity 89    
Precipitation  
Precipitation 0.09 in - - ()
Sea Level Pressure  
Sea Level Pressure 30.21 in    
Wind  
Wind Speed 10 mph (North)    
Max Wind Speed 17 mph    
Max Gust Speed 24 mph    
Visibility 7 miles    
Events Rain    
Averages and records for this station are not official NWS values.
T = Trace of Precipitation, MM = Missing Value Source: NWS Daily Summary

Daily Weather History Graph

Daily Weather History Graph

Search for Another Location

Airport:

Trip Planner

Search our weather history database for the weather conditions in past years. The results will help you decide how hot, cold, wet, or windy it might be!

Date:

Astronomy

Dec. 13, 2012 Rise Set
Actual Time 7:13 AM EST 5:26 PM EST
Civil Twilight 6:47 AM EST 5:52 PM EST
Nautical Twilight 6:17 AM EST 6:22 PM EST
Astronomical Twilight 5:48 AM EST 6:52 PM EST
Moon 7:22 AM EST (12/13) 6:05 PM EST (12/13)
Length of Visible Light 11h 05m
Length of Day
10h 12m
New Moon, 0% of the Moon is Illuminated
Dec 13
New Moon
Dec 20
First Quarter
Dec 28
Full
Jan 4
Last Quarter
Jan 11
New

Hourly Weather History & Observations

Time (EST) Temp. Dew Point Humidity Pressure Visibility Wind Dir Wind Speed Gust Speed Precip Events Conditions
12:52 AM 62.1 °F 61.0 °F 96% 30.10 in 6.0 mi NNW 6.9 mph - 0.03 in Rain Light Rain
1:52 AM 60.1 °F 59.0 °F 96% 30.09 in 9.0 mi North 11.5 mph 18.4 mph 0.02 in   Overcast
2:15 AM 59.0 °F 59.0 °F 100% 30.10 in 9.0 mi NNW 9.2 mph - N/A   Overcast
2:52 AM 57.9 °F 57.0 °F 97% 30.10 in 7.0 mi NNW 6.9 mph 16.1 mph 0.01 in Rain Light Rain
3:52 AM 55.0 °F 55.0 °F 100% 30.11 in 6.0 mi NNW 8.1 mph - 0.00 in   Overcast
4:52 AM 54.0 °F 53.1 °F 97% 30.12 in 8.0 mi North 10.4 mph 19.6 mph N/A   Overcast
5:52 AM 53.1 °F 53.1 °F 100% 30.14 in 7.0 mi North 8.1 mph - N/A   Overcast
6:03 AM 53.6 °F 53.6 °F 100% 30.15 in 8.0 mi NNW 8.1 mph - N/A   Overcast
6:32 AM 53.6 °F 53.6 °F 100% 30.17 in 7.0 mi NNW 6.9 mph - 0.00 in Rain Light Rain
6:52 AM 53.1 °F 52.0 °F 96% 30.18 in 3.0 mi NNW 11.5 mph 18.4 mph 0.03 in Rain Light Rain
7:23 AM 51.8 °F 51.8 °F 100% 30.20 in 4.0 mi North 12.7 mph - 0.00 in   Overcast
7:52 AM 51.1 °F 51.1 °F 100% 30.22 in 4.0 mi NNW 10.4 mph 16.1 mph 0.00 in   Overcast
8:52 AM 52.0 °F 51.1 °F 97% 30.23 in 6.0 mi North 15.0 mph 20.7 mph N/A   Overcast
9:06 AM 51.8 °F 51.8 °F 100% 30.24 in 7.0 mi North 16.1 mph 23.0 mph N/A   Overcast
9:52 AM 52.0 °F 50.0 °F 93% 30.26 in 10.0 mi North 12.7 mph 20.7 mph N/A   Overcast
10:52 AM 51.1 °F 50.0 °F 96% 30.26 in 7.0 mi North 11.5 mph 17.3 mph N/A   Overcast
11:52 AM 52.0 °F 50.0 °F 93% 30.26 in 10.0 mi North 17.3 mph - N/A   Overcast
12:52 PM 52.0 °F 48.9 °F 89% 30.24 in 10.0 mi North 15.0 mph 24.2 mph N/A   Overcast
1:52 PM 51.1 °F 48.9 °F 92% 30.24 in 10.0 mi North 11.5 mph 16.1 mph N/A   Overcast
2:52 PM 50.0 °F 48.9 °F 96% 30.24 in 3.0 mi NNW 9.2 mph - N/A   Overcast
3:52 PM 51.1 °F 48.9 °F 92% 30.23 in 6.0 mi North 16.1 mph 23.0 mph N/A   Overcast
4:52 PM 50.0 °F 48.0 °F 93% 30.24 in 9.0 mi North 17.3 mph 21.9 mph N/A   Overcast
5:52 PM 50.0 °F 48.0 °F 93% 30.25 in 10.0 mi North 10.4 mph - N/A   Overcast
6:52 PM 50.0 °F 48.9 °F 96% 30.26 in 9.0 mi North 17.3 mph 23.0 mph N/A   Overcast
7:52 PM 51.1 °F 48.9 °F 92% 30.27 in 9.0 mi NNE 12.7 mph 21.9 mph N/A   Overcast
8:52 PM 52.0 °F 50.0 °F 93% 30.27 in 7.0 mi North 12.7 mph 19.6 mph N/A   Overcast
9:52 PM 51.1 °F 50.0 °F 96% 30.27 in 3.0 mi North 9.2 mph 17.3 mph 0.00 in   Overcast
10:35 PM 50.0 °F 50.0 °F 100% 30.28 in 4.0 mi North 9.2 mph - 0.00 in Rain Light Rain
10:52 PM 51.1 °F 50.0 °F 96% 30.27 in 5.0 mi NNW 5.8 mph - 0.00 in Rain Light Rain
11:21 PM 51.8 °F 51.8 °F 100% 30.27 in 3.0 mi NNW 6.9 mph - 0.00 in   Overcast
11:52 PM 52.0 °F 51.1 °F 97% 30.26 in 6.0 mi NW 4.6 mph - 0.00 in   Overcast